Overview Statistics Trail Chart Weather Telemetry Raw packets
 

This is the latest recevied weather packets stored in our database for station/object DP0GVN-13. If no packets are shown the sender has not sent any weather packets the latest 10 day(s).

<< 14 15 16 17 18 19 20 >>
Time Temp. Humidity Pressure Rain* Wind** Luminosity Snow
1777460412 -15.56° C 84% 969 hPa - - 0 W/m² -
1777458612 -15.56° C 85% 968.9 hPa - - 0 W/m² -
1777456812 -15.56° C 86% 968.7 hPa - - 0 W/m² -
1777455012 -15.56° C 85% 968.9 hPa - - 0 W/m² -
1777453212 -15° C 86% 968.6 hPa - - 0 W/m² -
1777451412 -15° C 86% 968.6 hPa - - 0 W/m² -
1777449612 -12.78° C 88% 968.6 hPa - - 0 W/m² -
1777447812 -13.89° C 87% 969.2 hPa - - 0 W/m² -
1777446012 -11.67° C 92% 970 hPa - - 0 W/m² -
1777444212 -10° C 89% 970.6 hPa - - 0 W/m² -
1777442412 -10.56° C 90% 971.8 hPa - - 0 W/m² -
1777440612 -10.56° C 89% 972.9 hPa - - 0 W/m² -
1777438812 -10.56° C 90% 974.4 hPa - - 0 W/m² -
1777437012 -11.67° C 88% 975.5 hPa - - 0 W/m² -
1777435212 -11.67° C 88% 976.8 hPa - - 0 W/m² -
1777433412 -12.78° C 88% 978.1 hPa - - 0 W/m² -
1777431612 -13.89° C 88% 979.1 hPa - - 0 W/m² -
1777429812 -13.89° C 87% 980 hPa - - 0 W/m² -
1777428012 -12.78° C 88% 981.2 hPa - - 0 W/m² -
1777426212 -13.89° C 87% 982.3 hPa - - 0 W/m² -
1777424412 -13.89° C 87% 983 hPa - - 0 W/m² -
1777422612 -15° C 87% 983.5 hPa - - 0 W/m² -
1777420812 -15.56° C 86% 984.1 hPa - - 0 W/m² -
1777419012 -15.56° C 85% 984.4 hPa - - 0 W/m² -
1777417212 -16.67° C 85% 984.6 hPa - - 0 W/m² -

* Rain since midnight (hover to see other rain measurements)
** Current wind speed in m/s (hover to see current wind gust speed)